Wind_Speed
49 49 52 48 44 39 38 43 49 58 55 52 52 46 43 41 40 39 34 33 33 34 31 29 28 27 27 27 27 27 27 28 28 29 31 32 34 35 37 38 38 40 41 41
48 47 49 42 42 41 39 42 47 50 62 58 53 49 47 44 42 41 38 38 37 35 33 31 31 32 32 32 32 32 32 32 34 35 35 36 38 39 41 42 42 43 45 45
38 48 51 46 46 40 34 38 43 45 58 62 56 54 51 47 47 45 43 41 42 37 36 35 34 36 37 37 37 38 37 37 38 38 38 40 41 44 45 45 46 47 46 47
50 49 44 42 43 41 41 36 30 37 45 68 59 61 54 51 51 49 46 45 45 42 42 39 41 42 42 40 39 39 40 39 39 39 41 43 45 45 46 47 47 47 46 46
46 48 51 59 47 40 43 41 35 35 34 49 65 72 64 56 59 56 52 51 53 52 49 45 45 45 43 40 39 37 38 39 40 40 40 42 44 47 47 47 46 47 50 54
46 50 40 39 44 45 45 34 33 35 35 40 50 44 47 54 64 64 59 56 59 49 52 50 48 43 40 41 40 39 40 40 40 43 44 47 46 46 47 49 51 54 55 57
57 55 51 49 47 47 45 41 39 39 43 48 43 42 44 36 43 54 52 58 58 53 51 47 48 46 45 43 41 42 43 42 46 48 48 48 47 49 51 52 53 54 56 59
46 47 45 46 48 49 45 40 45 42 43 45 46 46 44 36 34 45 55 54 49 50 47 52 53 49 46 44 44 44 45 45 49 54 49 50 51 51 50 53 57 59 61 64
38 47 42 39 45 48 44 42 42 42 43 42 45 47 46 39 39 40 46 48 44 50 53 56 58 53 46 48 49 50 52 55 58 56 60 53 50 52 54 58 61 61 63 65
38 41 41 47 46 45 45 41 37 37 37 42 44 44 47 44 37 35 36 37 39 44 51 52 53 51 47 48 48 50 54 53 52 50 46 48 50 53 56 60 61 61 62 63
42 39 39 42 46 47 50 50 44 35 31 32 32 43 44 44 43 40 41 41 39 42 53 58 53 48 48 52 55 59 58 52 43 45 46 48 52 55 57 59 60 61 61 61
44 47 40 33 40 46 48 46 46 46 44 40 37 33 34 33 35 41 41 43 48 45 44 43 44 47 53 54 53 47 43 41 45 46 48 52 54 55 56 56 57 57 57 57
46 46 54 49 39 39 40 44 41 42 39 40 39 35 25 20 18 23 27 33 37 40 37 37 37 38 38 39 38 39 40 41 44 47 51 53 54 55 53 53 52 54 56 58
64 48 33 49 43 38 37 38 36 35 39 32 33 31 33 31 31 30 27 23 23 26 29 31 30 31 31 33 35 38 42 45 48 49 51 49 48 49 50 53 55 57 58 59
61 58 44 48 50 40 37 43 40 32 32 32 32 30 31 26 22 27 30 33 31 30 31 31 33 36 38 40 42 44 45 46 46 46 47 46 48 50 53 55 57 58 60 62
67 46 58 46 45 46 37 29 32 31 35 35 35 33 35 34 30 32 31 30 31 33 37 38 40 41 42 43 43 42 42 41 43 45 46 48 51 54 57 59 61 62 62 63
70 61 46 35 42 46 43 40 39 41 39 32 27 27 29 31 32 30 32 36 38 38 39 40 41 40 41 40 39 39 40 41 43 44 48 53 55 57 58 60 61 62 57 48
66 68 64 53 43 38 38 43 44 41 36 33 31 29 32 34 35 37 36 36 37 36 36 36 36 37 37 37 37 38 40 42 47 52 55 56 56 58 59 55 49 39 35 38
34 44 44 50 40 40 34 30 28 32 34 34 34 32 33 34 35 36 35 35 34 33 33 32 32 31 32 35 39 43 46 51 53 55 55 56 54 48 38 31 34 37 42 46
29 32 38 50 51 50 42 39 34 32 34 31 32 33 31 30 31 30 31 30 30 30 29 29 32 35 37 42 45 47 50 52 53 53 49 42 29 29 31 36 41 44 49 53
25 27 27 31 30 33 27 28 29 30 28 28 30 30 30 31 30 28 25 23 22 25 29 33 36 40 44 47 49 50 52 52 47 36 24 27 28 34 39 43 47 51 56 61
24 29 31 29 27 22 21 22 23 25 25 29 29 28 26 23 21 20 21 24 26 29 35 38 43 45 47 49 51 51 44 31 23 23 26 31 36 41 45 49 52 57 63 65
26 22 24 23 20 17 20 17 13 13 16 16 13 14 17 19 22 24 25 27 32 35 39 42 44 46 47 41 28 19 22 20 24 29 34 38 42 47 51 54 59 64 68 71
23 28 23 21 18 16 18 19 15 13 15 17 16 17 19 21 24 29 32 34 37 40 40 41 38 26 19 20 20 19 23 27 32 35 40 44 48 52 57 61 66 69 73 76
16 16 24 22 19 20 18 18 16 16 18 20 22 24 27 30 33 35 35 34 35 34 31 24 21 20 20 20 22 26 30 33 37 41 46 50 54 59 63 67 70 74 77 81
6 11 10 12 16 15 14 16 18 21 25 28 32 34 37 40 40 35 32 30 28 24 22 22 21 21 23 25 29 32 35 39 43 47 51 55 61 65 68 72 75 78 82 84
Wind_Direction
215 216 212 211 209 216 224 219 216 216 219 219 223 219 220 221 223 225 226 226 225 229 232 236 241 242 243 244 248 253 258 261 266 267 268 271 273 274 276 277 277 278 281 284
217 219 213 212 211 214 222 217 216 214 216 221 222 224 223 222 224 228 229 231 231 233 236 236 240 243 243 245 246 251 255 260 264 264 266 270 274 278 280 281 281 282 284 286
218 220 226 231 230 222 216 216 219 217 214 221 223 224 225 225 228 228 231 233 235 235 237 239 241 245 249 249 250 252 257 263 269 269 270 272 276 278 281 282 282 284 286 286
217 214 220 222 227 233 228 224 214 220 216 220 221 227 225 228 232 234 233 237 242 242 243 243 252 250 251 248 250 256 260 266 270 275 275 275 276 275 278 280 283 284 286 287
214 218 219 223 221 227 235 231 234 232 227 223 224 230 230 231 233 236 241 238 240 245 250 249 254 246 248 250 253 259 264 267 271 271 276 279 278 277 280 283 284 286 288 289
205 209 212 214 215 220 234 229 234 236 229 225 221 227 235 242 242 240 243 242 248 252 245 249 245 245 250 255 258 259 262 265 270 273 276 278 279 281 283 284 286 288 290 292
215 225 230 227 218 216 225 232 230 230 229 225 226 228 240 246 244 241 242 242 247 251 247 247 248 247 247 253 255 262 267 266 277 270 273 276 279 282 284 287 288 290 294 294
215 218 213 215 213 216 216 227 230 232 231 228 225 228 236 238 242 238 238 242 250 246 248 245 249 252 252 254 255 264 269 266 270 273 272 275 278 282 286 289 292 294 295 296
209 214 216 210 214 215 214 221 236 236 231 232 231 231 233 239 238 232 236 240 243 236 246 234 239 250 255 249 259 258 262 267 266 273 265 271 279 284 290 292 293 295 296 295
194 201 200 208 216 216 215 219 224 225 230 233 235 231 234 240 237 234 232 240 241 247 248 235 248 240 248 252 252 259 263 264 266 266 272 278 284 288 290 291 293 295 295 295
197 195 207 213 213 214 212 212 222 224 220 229 238 242 240 243 242 239 234 241 243 241 237 241 241 243 247 252 256 257 256 272 280 282 285 289 290 291 292 293 295 295 297 297
204 205 196 204 214 219 219 226 229 236 233 243 245 234 232 236 239 238 238 239 243 241 241 244 249 251 256 261 263 265 271 277 283 288 291 290 290 291 291 292 294 295 296 297
200 205 213 213 215 216 227 229 232 237 238 229 229 228 232 233 237 240 240 242 246 250 252 252 253 256 261 267 274 279 283 287 287 286 287 289 289 290 293 295 295 296 297 298
206 201 213 212 213 211 208 213 221 224 216 230 231 238 245 257 259 258 264 267 270 272 272 271 272 275 278 280 281 284 284 283 285 285 285 289 293 295 296 297 298 299 300 301
205 210 208 199 214 214 210 213 216 221 235 240 253 261 268 274 274 277 279 280 281 276 270 270 273 278 279 280 282 281 281 283 286 289 292 294 294 296 298 300 300 301 303 303
202 208 214 204 201 204 213 225 226 240 249 248 257 268 275 278 271 281 280 276 269 271 272 267 267 267 270 275 281 285 289 291 292 292 295 297 300 302 302 302 302 303 302 302
202 201 202 228 229 234 239 238 248 254 258 254 256 263 258 260 265 265 258 254 256 260 262 267 274 280 283 286 288 288 289 290 293 297 299 300 301 303 303 302 301 300 300 299
209 218 224 231 233 234 234 239 244 250 248 255 265 260 254 255 256 254 254 258 263 267 271 275 278 282 285 287 290 291 292 296 299 300 301 302 302 302 301 300 299 299 301 305
209 217 220 216 214 215 210 207 231 246 255 261 261 259 255 255 257 256 257 261 265 269 274 281 288 293 296 295 293 293 294 295 297 298 298 298 298 297 298 302 305 306 309 313
190 203 214 216 220 224 232 247 250 247 249 250 248 248 252 251 254 255 259 266 274 282 286 290 291 290 295 294 291 291 292 293 293 295 296 294 296 304 304 306 312 315 314 315
205 202 206 211 219 225 227 231 236 239 243 242 244 247 250 254 258 262 267 272 277 281 283 286 288 291 294 292 290 289 291 294 294 291 291 299 301 306 312 313 313 314 314 314
203 204 205 211 223 228 232 239 243 240 239 240 243 246 251 256 263 266 264 265 272 280 286 289 289 287 288 290 292 293 290 287 289 294 298 305 311 312 312 311 312 312 311 310
186 193 196 201 203 215 221 222 228 228 233 238 246 248 246 248 253 260 270 278 281 282 288 288 286 288 290 290 285 282 288 290 298 305 310 310 309 309 309 309 308 307 307 308
207 214 204 206 204 218 205 204 221 240 240 243 247 251 258 265 272 281 283 279 279 280 285 288 287 282 279 283 283 287 298 304 306 307 308 308 307 307 307 307 307 308 308 308
133 157 192 188 197 202 207 222 229 240 251 262 265 270 277 281 283 282 278 276 279 282 285 277 279 282 282 280 289 298 300 302 306 305 305 305 306 307 307 307 307 306 306 307
159 157 172 184 211 220 226 248 254 260 261 263 267 271 273 273 271 272 273 273 277 273 271 275 276 273 277 286 293 295 299 303 302 303 303 305 305 306 305 306 306 306 308 308
Height
5705 5712 5721 5728 5736 5744 5748 5753 5762 5772 5777 5781 5785 5795 5802 5807 5813 5817 5820 5824 5827 5828 5831 5835 5838 5841 5843 5843 5843 5844 5844 5844 5845 5845 5845 5844 5843 5841 5840 5838 5836 5834 5832 5830
5698 5706 5715 5722 5727 5735 5740 5745 5752 5760 5768 5773 5779 5788 5794 5800 5806 5811 5814 5817 5820 5823 5827 5829 5832 5834 5836 5837 5837 5837 5837 5838 5838 5838 5838 5838 5836 5835 5833 5830 5829 5826 5825 5823
5693 5699 5706 5713 5721 5727 5734 5741 5747 5753 5760 5768 5773 5779 5784 5793 5799 5803 5806 5810 5813 5816 5821 5824 5826 5828 5830 5831 5831 5831 5831 5832 5832 5832 5831 5830 5829 5827 5826 5823 5821 5818 5817 5814
5684 5692 5699 5708 5717 5723 5729 5737 5742 5745 5752 5757 5765 5767 5776 5784 5791 5796 5800 5803 5807 5811 5814 5817 5819 5822 5823 5824 5825 5826 5826 5825 5825 5825 5824 5822 5821 5819 5816 5815 5813 5811 5808 5805
5679 5686 5692 5700 5710 5716 5723 5729 5735 5741 5745 5749 5757 5761 5768 5776 5780 5787 5794 5797 5799 5803 5807 5809 5810 5813 5815 5816 5817 5818 5818 5818 5817 5816 5815 5813 5811 5810 5808 5806 5803 5801 5798 5795
5670 5679 5686 5696 5704 5711 5716 5724 5730 5735 5739 5742 5751 5756 5760 5767 5773 5779 5786 5790 5791 5794 5798 5800 5803 5804 5807 5807 5809 5809 5809 5809 5808 5807 5806 5805 5802 5801 5799 5797 5794 5791 5787 5783
5665 5670 5679 5688 5696 5703 5711 5718 5723 5727 5730 5735 5742 5747 5751 5757 5760 5766 5773 5778 5782 5784 5789 5792 5794 5795 5797 5800 5802 5801 5801 5801 5800 5798 5797 5796 5794 5792 5789 5787 5784 5780 5776 5772
5660 5668 5671 5680 5688 5698 5704 5710 5715 5719 5724 5730 5734 5739 5744 5750 5752 5756 5762 5768 5773 5776 5780 5785 5786 5788 5790 5792 5792 5792 5792 5791 5790 5788 5787 5786 5784 5783 5779 5776 5773 5768 5763 5759
5654 5660 5669 5675 5683 5692 5697 5704 5711 5714 5719 5724 5729 5734 5739 5745 5747 5750 5754 5760 5765 5770 5771 5773 5774 5778 5780 5781 5781 5780 5781 5781 5781 5778 5776 5775 5774 5771 5767 5765 5761 5756 5751 5747
5648 5656 5663 5670 5676 5684 5692 5701 5705 5707 5711 5716 5721 5726 5730 5735 5738 5743 5748 5752 5755 5759 5762 5764 5767 5768 5769 5771 5771 5772 5772 5771 5769 5768 5766 5764 5763 5760 5757 5754 5749 5743 5738 5734
5642 5651 5659 5665 5669 5678 5686 5691 5698 5704 5706 5710 5715 5721 5725 5727 5731 5735 5740 5744 5747 5750 5753 5757 5757 5758 5759 5761 5761 5761 5759 5758 5757 5758 5756 5754 5750 5747 5744 5739 5734 5730 5726 5722
5636 5645 5652 5660 5667 5675 5683 5688 5693 5696 5702 5706 5711 5717 5718 5722 5724 5728 5733 5738 5741 5742 5744 5747 5748 5749 5750 5751 5752 5751 5749 5748 5748 5747 5745 5742 5739 5735 5731 5727 5724 5720 5715 5711
5631 5639 5648 5656 5664 5668 5675 5682 5687 5692 5697 5701 5706 5711 5713 5716 5719 5722 5725 5729 5732 5732 5735 5737 5738 5740 5742 5742 5741 5740 5740 5739 5738 5736 5734 5731 5728 5725 5721 5717 5713 5709 5703 5698
5625 5638 5645 5653 5659 5667 5672 5678 5682 5688 5691 5693 5698 5702 5705 5709 5712 5716 5720 5722 5724 5727 5729 5731 5731 5732 5733 5733 5733 5733 5732 5731 5729 5726 5723 5720 5717 5714 5710 5706 5701 5695 5690 5685
5622 5633 5640 5645 5655 5662 5667 5673 5676 5680 5684 5687 5692 5694 5699 5705 5707 5710 5714 5717 5720 5723 5725 5726 5727 5727 5727 5726 5725 5724 5722 5720 5718 5716 5714 5711 5707 5703 5698 5692 5687 5681 5675 5669
5616 5628 5635 5642 5645 5652 5658 5662 5668 5676 5679 5684 5688 5691 5696 5700 5703 5706 5710 5712 5714 5715 5717 5716 5716 5716 5715 5715 5715 5714 5713 5711 5710 5707 5704 5700 5695 5690 5684 5678 5672 5666 5659 5653
5613 5621 5628 5635 5641 5646 5653 5660 5666 5671 5675 5678 5683 5687 5690 5693 5696 5700 5702 5704 5705 5707 5707 5708 5707 5707 5707 5707 5707 5705 5704 5701 5698 5695 5691 5686 5681 5676 5669 5663 5657 5650 5645 5639
5610 5616 5624 5630 5638 5643 5651 5655 5662 5666 5669 5673 5677 5681 5685 5688 5691 5692 5695 5697 5698 5698 5699 5699 5700 5701 5700 5699 5698 5696 5693 5690 5686 5682 5678 5672 5666 5661 5655 5649 5644 5639 5635 5630
5606 5612 5620 5628 5634 5642 5647 5652 5657 5662 5667 5669 5672 5675 5679 5682 5684 5687 5688 5689 5691 5693 5693 5692 5691 5691 5691 5690 5688 5685 5681 5678 5674 5669 5664 5659 5653 5647 5642 5638 5634 5630 5625 5619
5602 5609 5616 5625 5630 5636 5643 5647 5652 5655 5661 5665 5667 5670 5673 5675 5678 5680 5681 5682 5683 5684 5684 5684 5683 5682 5681 5679 5675 5672 5668 5663 5660 5656 5651 5646 5641 5638 5633 5630 5625 5619 5614 5608
5602 5608 5613 5620 5626 5634 5640 5644 5647 5652 5661 5659 5662 5664 5666 5669 5672 5673 5675 5676 5677 5677 5677 5676 5675 5672 5670 5666 5663 5659 5655 5651 5647 5642 5639 5637 5633 5629 5624 5619 5614 5608 5602 5596
5601 5606 5612 5618 5625 5631 5635 5639 5645 5648 5649 5653 5656 5659 5661 5664 5665 5667 5669 5669 5669 5668 5668 5665 5663 5660 5657 5653 5649 5646 5642 5639 5636 5635 5631 5628 5624 5620 5615 5609 5602 5596 5588 5581
5601 5608 5613 5620 5625 5629 5633 5636 5640 5644 5647 5650 5652 5654 5656 5658 5659 5660 5661 5660 5659 5657 5655 5652 5650 5647 5645 5641 5638 5636 5635 5633 5630 5627 5623 5620 5615 5610 5603 5596 5590 5582 5574 5565
5601 5607 5613 5620 5623 5627 5631 5635 5638 5641 5644 5646 5648 5649 5650 5651 5652 5652 5651 5649 5648 5647 5644 5642 5639 5636 5635 5634 5632 5630 5628 5625 5623 5620 5615 5610 5604 5598 5590 5582 5573 5565 5556 5547
5604 5608 5613 5618 5622 5625 5629 5632 5635 5638 5641 5642 5642 5642 5643 5642 5642 5641 5640 5639 5638 5636 5634 5633 5632 5631 5629 5627 5625 5624 5622 5618 5614 5609 5604 5598 5591 5583 5575 5566 5558 5549 5540 5530
5607 5610 5614 5618 5622 5625 5625 5629 5631 5632 5633 5635 5635 5635 5635 5633 5632 5632 5631 5629 5628 5628 5628 5627 5626 5624 5623 5621 5619 5616 5613 5608 5603 5597 5591 5585 5577 5569 5560 5551 5540 5532 5521 5510